Location: Unspecified
(33.8730°N, 0.0000°E)
Time: 13:38:14
(UTC+00:00)

DMSP BIV-1 Rocket - Visible Passes

Search period start: 04 April 2026 00:00
Search period end: 14 April 2026 00:00
Orbit: 657 x 816 km, 98.2° (Epoch: 29 March)

Date Brightness Start Highest point End Pass type
(mag) Time Alt. Az. Time Alt. Az. Time Alt. Az.
4 Apr 6.5 03:07:12 37° NE 03:07:12 37° NE 03:10:24 10° N visible
4 Apr 7.3 04:46:46 10° WNW 04:46:46 10° WNW 04:46:51 10° WNW visible
5 Apr 8.0 02:21:17 15° ENE 02:21:17 15° ENE 02:23:47 10° NNE visible
5 Apr 6.2 04:00:51 31° NW 04:00:51 31° NW 04:03:36 10° NNW visible
6 Apr 6.0 03:14:56 49° NE 03:14:56 49° NE 03:18:34 10° N visible
7 Apr 7.7 02:29:00 18° ENE 02:29:13 18° ENE 02:32:18 10° NNE visible
7 Apr 6.2 04:08:35 29° WNW 04:08:35 29° WNW 04:11:30 10° NNW visible
8 Apr 5.5 03:22:39 65° NNE 03:22:39 65° NNE 03:26:41 10° N visible
9 Apr 7.4 02:36:44 22° E 02:37:14 22° ENE 02:40:42 10° NNE visible
9 Apr 6.2 04:16:19 26° W 04:16:19 26° W 04:19:22 10° NW visible
10 Apr 5.1 03:30:24 84° N 03:30:24 84° N 03:34:47 10° NNW visible
11 Apr 7.1 02:44:28 25° E 02:45:15 27° ENE 02:49:02 10° NNE visible
11 Apr 6.4 04:24:03 22° W 04:24:03 22° W 04:27:09 10° NW visible
12 Apr 5.0 03:38:08 73° SW 03:38:19 74° WSW 03:42:50 10° NNW visible
13 Apr 6.8 02:52:13 29° E 02:53:17 33° ENE 02:57:18 10° N visible
13 Apr 6.6 04:31:47 18° W 04:31:47 18° W 04:34:49 10° NW visible
